KD7ECD Weather Reports


time (UTC)temp
C
wind
direction
speed
KPH
gust
KPH
rain 1hr
cm
rain 24hr
cm
rain mn
cm
humidity
%
barometer
mb
20260506155409 14 278 6.4 8.0 0.00 0.00 0.00 82 1023.2
20260506153530 13 150 0.0 0.0 0.00 0.00 0.00 85 1023.0
20260506152530 13 217 0.0 0.0 0.00 0.00 0.00 86 1023.0
20260506151526 12 221 1.6 3.2 0.00 0.00 0.00 87 1023.4
20260506150525 12 187 4.8 8.0 0.00 0.00 0.00 87 1023.3
20260506145525 12 201 0.0 3.2 0.00 0.00 0.00 88 1023.4
20260506144525 12 183 0.0 9.7 0.00 0.00 0.00 89 1023.5
20260506143520 12 179 0.0 0.0 0.00 0.00 0.00 89 1023.2
20260506142515 12 179 0.0 0.0 0.00 0.00 0.00 89 1023.3
20260506141511 12 184 0.0 0.0 0.00 0.00 0.00 90 1022.9
20260506140506 12 188 0.0 0.0 0.00 0.00 0.00 91 1022.7
20260506135506 11 182 0.0 0.0 0.00 0.00 0.00 91 1022.8
20260506134503 11 195 0.0 0.0 0.00 0.00 0.00 92 1022.7
20260506133503 11 195 0.0 0.0 0.00 0.00 0.00 92 1022.6
20260506132502 11 195 0.0 0.0 0.00 0.00 0.00 92 1022.5
20260506131457 11 201 0.0 0.0 0.00 0.00 0.00 93 1022.4
20260506130456 11 201 0.0 0.0 0.00 0.00 0.00 93 1022.5
20260506125452 11 200 0.0 0.0 0.00 0.00 0.00 93 1022.2
20260506124447 11 201 0.0 0.0 0.00 0.00 0.00 94 1022.1
20260506123442 11 190 0.0 0.0 0.00 0.00 0.00 94 1022.1
20260506122442 11 190 0.0 0.0 0.00 0.00 0.00 94 1022.1
20260506121437 11 190 0.0 0.0 0.00 0.00 0.00 94 1022.2
20260506120438 11 191 0.0 0.0 0.00 0.00 0.00 95 1022.1
20260506115433 11 199 0.0 0.0 0.00 0.00 0.00 95 1022.0
20260506114428 11 212 0.0 0.0 0.00 0.00 0.00 96 1022.0
20260506113424 11 201 0.0 0.0 0.00 0.00 0.00 96 1021.9
20260506112424 11 177 0.0 0.0 0.00 0.00 0.00 96 1022.1
20260506111419 11 176 0.0 0.0 0.00 0.00 0.00 96 1021.5
20260506110414 11 157 0.0 0.0 0.00 0.00 0.00 96 1021.7
20260506105412 11 140 0.0 0.0 0.00 0.00 0.00 96 1021.7
20260506104408 10 154 0.0 0.0 0.00 0.00 0.00 96 1021.6
20260506103402 10 146 0.0 0.0 0.00 0.00 0.00 96 1021.8
20260506102357 10 141 0.0 0.0 0.00 0.00 0.00 96 1021.3
20260506101356 10 155 0.0 0.0 0.00 0.00 0.00 96 1021.6
20260506100352 10 166 0.0 0.0 0.00 0.00 0.00 96 1021.3
20260506095348 10 166 0.0 0.0 0.00 0.00 0.00 96 1021.4
20260506094343 10 141 0.0 0.0 0.00 0.00 0.00 96 1021.2
20260506093343 10 164 0.0 0.0 0.00 0.00 0.00 96 1021.3
20260506092339 10 180 0.0 0.0 0.00 0.00 0.00 96 1021.5
20260506091339 10 174 0.0 0.0 0.00 0.00 0.00 96 1021.3
20260506090339 10 156 0.0 0.0 0.00 0.00 0.00 96 1021.5
20260506085338 10 132 0.0 0.0 0.00 0.00 0.00 96 1021.6
20260506084338 10 135 0.0 0.0 0.00 0.00 0.00 95 1021.7
20260506083338 10 184 0.0 0.0 0.00 0.00 0.00 95 1021.4
20260506082337 11 184 0.0 0.0 0.00 0.00 0.00 94 1021.6
20260506081337 11 184 0.0 0.0 0.00 0.00 0.00 94 1021.7
20260506080337 11 184 0.0 0.0 0.00 0.00 0.00 94 1021.7
20260506073327 11 184 0.0 0.0 0.00 0.00 0.00 94 1021.4
20260506072327 11 184 0.0 0.0 0.00 0.00 0.00 93 1021.4
20260506071323 11 183 0.0 0.0 0.00 0.00 0.00 93 1021.1
20260506070322 11 194 0.0 0.0 0.00 0.00 0.00 93 1021.1
20260506062311 12 229 3.2 3.2 0.00 0.03 0.03 91 1020.6
20260506061310 12 245 4.8 4.8 0.00 0.03 0.03 90 1020.8
20260506060306 12 234 6.4 8.0 0.00 0.03 0.03 91 1020.7
20260506051255 12 220 3.2 4.8 0.00 0.03 0.03 88 1020.3
20260506050250 12 218 6.4 8.0 0.00 0.03 0.03 87 1020.0
20260506044250 13 229 6.4 8.0 0.00 0.03 0.03 86 1020.0
20260506043244 13 245 4.8 4.8 0.00 0.03 0.03 86 1020.2
20260506042241 13 229 4.8 4.8 0.00 0.03 0.03 86 1019.9
20260506041241 13 237 4.8 8.0 0.00 0.03 0.03 85 1019.6
20260506040236 13 243 4.8 8.0 0.00 0.03 0.03 84 1019.6
20260506035235 13 218 4.8 4.8 0.00 0.03 0.03 84 1019.5
20260506034235 13 203 9.7 11.3 0.00 0.03 0.03 84 1019.4
20260506033230 13 213 6.4 8.0 0.00 0.03 0.03 83 1019.3
20260506032229 13 197 9.7 12.9 0.00 0.03 0.03 83 1019.2
20260506031229 13 233 8.0 9.7 0.00 0.03 0.03 83 1019.3
20260506030224 13 211 8.0 11.3 0.00 0.03 0.03 82 1018.8
20260506025223 13 210 11.3 16.1 0.00 0.03 0.03 82 1018.7
20260506024223 13 220 8.0 12.9 0.00 0.03 0.03 81 1018.8
20260506023222 13 241 14.5 16.1 0.00 0.03 0.03 81 1018.8
20260506022217 14 233 11.3 14.5 0.00 0.03 0.03 81 1018.3
20260506021217 14 190 8.0 12.9 0.00 0.03 0.03 80 1018.3
20260506020212 14 210 8.0 9.7 0.00 0.03 0.03 80 1018.2
20260506015213 15 190 6.4 8.0 0.00 0.03 0.03 80 1018.2
20260506014211 15 194 8.0 9.7 0.00 0.03 0.03 79 1018.1
20260506013206 15 218 11.3 14.5 0.00 0.03 0.03 79 1018.3
20260506012205 15 209 11.3 16.1 0.00 0.03 0.03 80 1018.3
20260506011204 15 226 12.9 16.1 0.00 0.03 0.03 79 1018.2
20260506010159 15 196 8.0 11.3 0.00 0.03 0.03 78 1018.2
20260506005159 15 219 9.7 14.5 0.00 0.03 0.03 77 1017.9
20260506004159 15 210 8.0 11.3 0.00 0.03 0.03 76 1018.2
20260506003156 15 223 11.3 16.1 0.00 0.03 0.03 76 1018.0
20260506002154 15 213 8.0 14.5 0.00 0.03 0.03 77 1018.1
20260506001154 15 225 11.3 14.5 0.00 0.03 0.03 77 1018.0
20260506000148 15 213 12.9 14.5 0.00 0.03 0.03 77 1017.7
20260505235149 15 188 12.9 16.1 0.00 0.03 0.03 77 1017.7
20260505234148 15 222 9.7 11.3 0.00 0.03 0.03 78 1017.8
20260505233148 15 207 8.0 9.7 0.00 0.03 0.03 78 1017.9
20260505232143 15 214 8.0 11.3 0.00 0.03 0.03 79 1017.9
20260505231139 15 233 8.0 14.5 0.00 0.03 0.03 78 1018.2
20260505230138 15 253 9.7 12.9 0.00 0.03 0.03 79 1018.3
20260505225137 15 290 8.0 11.3 0.00 0.03 0.03 79 1017.9
20260505224137 15 260 11.3 16.1 0.00 0.03 0.03 79 1017.9
20260505223136 15 226 9.7 12.9 0.00 0.03 0.03 79 1018.2
20260505222134 15 245 9.7 11.3 0.00 0.03 0.03 81 1018.1
20260505221134 14 230 12.9 14.5 0.00 0.03 0.03 81 1018.3
20260505220134 14 242 11.3 14.5 0.00 0.03 0.03 81 1018.1
20260505215130 14 251 12.9 14.5 0.00 0.03 0.03 82 1018.2
20260505214130 14 236 12.9 14.5 0.00 0.03 0.03 81 1018.2
20260505213130 14 237 11.3 16.1 0.00 0.03 0.03 82 1018.3
20260505212130 14 260 14.5 17.7 0.00 0.03 0.03 82 1018.3
20260505211130 14 234 11.3 14.5 0.00 0.03 0.03 83 1018.5
20260505210129 13 198 9.7 12.9 0.00 0.03 0.03 83 1018.6
20260505205125 13 233 11.3 14.5 0.00 0.03 0.03 85 1018.5
20260505204125 13 215 11.3 11.3 0.00 0.03 0.03 86 1018.6
20260505203124 13 221 9.7 12.9 0.00 0.03 0.03 87 1018.7
20260505202122 13 191 9.7 14.5 0.00 0.03 0.03 88 1018.6
20260505201123 12 209 4.8 16.1 0.00 0.03 0.03 90 1018.7
20260505200117 12 197 9.7 14.5 0.00 0.03 0.03 91 1018.5
20260505195117 12 192 8.0 12.9 0.00 0.03 0.03 92 1018.8
20260505194115 12 192 9.7 12.9 0.00 0.03 0.03 94 1018.8
20260505193115 12 183 8.0 9.7 0.00 0.03 0.03 95 1019.0
20260505192111 12 193 14.5 17.7 0.00 0.03 0.03 94 1018.7
20260505191107 12 203 9.7 16.1 0.00 0.03 0.03 94 1018.9
20260505190103 12 208 12.9 14.5 0.00 0.03 0.03 93 1018.7
20260505185103 12 199 14.5 14.5 0.00 0.03 0.03 93 1018.6
20260505184102 12 203 11.3 16.1 0.00 0.03 0.03 95 1018.6
20260505183102 12 208 11.3 16.1 0.00 0.03 0.03 95 1018.6
20260505182101 12 211 12.9 14.5 0.00 0.03 0.03 97 1018.5
20260505181101 11 206 9.7 14.5 0.00 0.03 0.03 97 1018.6
20260505180100 11 199 12.9 16.1 0.00 0.03 0.03 97 1018.6
20260505175058 11 199 12.9 14.5 0.00 0.03 0.03 97 1018.5
20260505174056 11 202 8.0 12.9 0.00 0.03 0.03 97 1018.3
20260505173056 11 190 11.3 12.9 0.00 0.03 0.03 96 1018.3
20260505172050 11 212 4.8 8.0 0.00 0.03 0.03 96 1018.1
20260505171048 11 220 9.7 9.7 0.00 0.03 0.03 95 1017.9
20260505170047 11 222 8.0 11.3 0.00 0.03 0.03 94 1018.1
20260505165044 11 196 9.7 11.3 0.00 0.03 0.03 93 1017.9
20260505164044 11 177 8.0 16.1 0.00 0.03 0.03 92 1017.8
20260505163045 11 199 8.0 9.7 0.00 0.03 0.03 91 1018.0
20260505162041 11 195 8.0 12.9 0.00 0.03 0.03 90 1017.9
20260505161041 11 199 6.4 11.3 0.00 0.03 0.03 89 1017.6